Waukegan, IL

6:46 AM CST on February 24, 2018 (GMT -0600)
Waukegan Regional

Weather History for KUGN - March, 2014

Change the Weather History Date:

Monday, March 17, 2014

  Actual Average Record
Temperature  
Mean Temperature 25 °F -  
Max Temperature 31 °F 44 °F 76 °F (2012)
Min Temperature 18 °F 27 °F 18 °F (2014)
Degree Days  
Heating Degree Days 40 30  
Month to date heating degree days 693 545  
Since 1 July heating degree days 6562 5491  
Cooling Degree Days 0 0  
Month to date cooling degree days 0 0  
Year to date cooling degree days 0 0  
Moisture  
Dew Point 16 °F    
Average Humidity 72    
Maximum Humidity 92    
Minimum Humidity 52    
Precipitation  
Precipitation 0.00 in 0.08 in 0.14 in (2006)
Month to date precipitation 0.09 1.11  
Year to date precipitation 2.11 4.16  
Sea Level Pressure  
Sea Level Pressure 29.99 in    
Wind  
Wind Speed 9 mph (ESE)    
Max Wind Speed 16 mph    
Max Gust Speed 21 mph    
Visibility 10 miles    
Events      
T = Trace of Precipitation, MM = Missing Value Source: NWS Daily Summary

Daily Weather History Graph

Daily Weather History Graph

Search for Another Location

Airport or City:

Trip Planner

Search our weather history database for the weather conditions in past years. The results will help you decide how hot, cold, wet, or windy it might be!

Date:

Astronomy

Mar. 17, 2014 Rise Set
Actual Time 6:59 AM CDT 7:00 PM CDT
Civil Twilight 6:31 AM CDT 7:28 PM CDT
Nautical Twilight 5:59 AM CDT 8:01 PM CDT
Astronomical Twilight 5:26 AM CDT 8:34 PM CDT
Moon 8:19 PM CDT (3/17) 7:13 AM CDT (3/17)
Length of Visible Light 12h 56m
Length of Day
12h 00m
Full, 99% of the Moon is Illuminated
Mar 17
Full
Mar 23
Last Quarter
Mar 30
New
Apr 7
First Quarter
Apr 15
Full

Hourly Weather History & Observations

Time (CDT) Temp. Windchill Dew Point Humidity Pressure Visibility Wind Dir Wind Speed Gust Speed Precip Events Conditions
12:52 AM 19.9 °F 9.3 °F 9.0 °F 62% 30.19 in 10.0 mi ENE 9.2 mph - N/A   Clear
1:52 AM 19.0 °F 11.1 °F 10.9 °F 71% 30.15 in 10.0 mi East 5.8 mph - N/A   Clear
2:28 AM 19.4 °F 12.8 °F 12.2 °F 74% 30.10 in 10.0 mi East 4.6 mph - N/A   Mostly Cloudy
2:52 AM 19.9 °F 9.3 °F 14.0 °F 78% 30.13 in 10.0 mi East 9.2 mph - N/A   Overcast
3:52 AM 19.0 °F 10.0 °F 12.9 °F 77% 30.11 in 10.0 mi East 6.9 mph - N/A   Scattered Clouds
4:01 AM 19.4 °F 12.8 °F 12.2 °F 74% 30.05 in 10.0 mi East 4.6 mph - N/A   Mostly Cloudy
4:43 AM 19.4 °F 11.5 °F 12.2 °F 74% 30.03 in 10.0 mi East 5.8 mph - N/A   Scattered Clouds
4:52 AM 19.0 °F 11.1 °F 12.9 °F 77% 30.09 in 10.0 mi East 5.8 mph - N/A   Scattered Clouds
5:52 AM 18.0 °F 9.8 °F 12.9 °F 81% 30.08 in 10.0 mi East 5.8 mph - N/A   Partly Cloudy
6:52 AM 19.0 °F 9.0 °F 10.9 °F 71% 30.07 in 10.0 mi East 8.1 mph - N/A   Clear
7:52 AM 21.0 °F 9.3 °F 6.1 °F 53% 30.04 in 10.0 mi ESE 11.5 mph - N/A   Clear
8:52 AM 21.9 °F 9.2 °F 7.0 °F 53% 30.04 in 10.0 mi SE 13.8 mph 20.7 mph N/A   Clear
9:52 AM 24.1 °F 13.1 °F 10.9 °F 57% 30.04 in 10.0 mi ESE 11.5 mph - N/A   Clear
10:52 AM 24.1 °F 14.4 °F 10.9 °F 57% 30.02 in 10.0 mi South 9.2 mph - N/A   Partly Cloudy
11:52 AM 26.1 °F 16.8 °F 14.0 °F 60% 29.99 in 10.0 mi ESE 9.2 mph 16.1 mph N/A   Clear
12:52 PM 26.1 °F 15.6 °F 14.0 °F 60% 29.97 in 10.0 mi SE 11.5 mph - N/A   Clear
1:52 PM 27.0 °F 16.7 °F 16.0 °F 63% 29.91 in 10.0 mi ESE 11.5 mph - N/A   Clear
2:52 PM 28.9 °F 18.6 °F 18.0 °F 64% 29.88 in 10.0 mi ESE 12.7 mph - N/A   Clear
3:52 PM 30.0 °F 21.7 °F 19.0 °F 64% 29.88 in 10.0 mi SE 9.2 mph - N/A   Clear
4:52 PM 28.9 °F 18.6 °F 19.0 °F 67% 29.84 in 10.0 mi SE 12.7 mph - N/A   Partly Cloudy
5:52 PM 30.0 °F 21.1 °F 21.0 °F 69% 29.85 in 10.0 mi SE 10.4 mph - N/A   Mostly Cloudy
6:52 PM 30.9 °F 22.2 °F 21.9 °F 69% 29.84 in 10.0 mi ESE 10.4 mph 17.3 mph N/A   Overcast
7:52 PM 30.9 °F 22.2 °F 24.1 °F 76% 29.85 in 10.0 mi SE 10.4 mph - N/A   Mostly Cloudy
8:52 PM 30.9 °F 23.5 °F 25.0 °F 79% 29.84 in 10.0 mi SE 8.1 mph - N/A   Clear
9:52 PM 30.0 °F 25.2 °F 27.0 °F 88% 29.86 in 8.0 mi SE 4.6 mph - N/A   Clear
10:52 PM 28.9 °F 25.2 °F 27.0 °F 92% 29.87 in 7.0 mi SE 3.5 mph - N/A   Clear
11:52 PM 28.9 °F 23.9 °F 25.0 °F 85% 29.88 in 8.0 mi SSE 4.6 mph - N/A   Clear